Simultaneous Nadir Overpasses (SNOs) Predictions

Prediction of SNOs between GOES-14 and AQUA Satellite Orbit:

Table of predicted SNOs for the next 14.0 days since TLE Epoch: 6/5/2021
Index Date Time (GOES-14) GOES-14 Lat,Lon AQUA Lat,Lon Distance(km) Time Diff (sec)
1 06/06/2021 08:29:27 0.04,-104.12 -0.17,-103.20 104.66 80
2 06/06/2021 20:48:12 -0.02,-104.33 -0.88,-108.40 462.42 80
3 06/08/2021 08:17:16 0.04,-104.12 -0.81,-100.25 440.87 80
4 06/08/2021 20:36:01 -0.02,-104.33 -0.23,-105.45 126.46 80
5 06/10/2021 20:26:29 -0.02,-104.33 0.35,-102.48 209.37 80
6 06/11/2021 08:45:05 -0.01,-104.11 0.73,-107.64 402.04 80
7 06/13/2021 08:32:53 -0.01,-104.10 0.14,-104.68 66.28 80
8 06/15/2021 08:23:22 -0.00,-104.10 -0.51,-101.73 269.57 80
9 06/15/2021 20:42:07 0.03,-104.32 -0.52,-106.93 296.65 80
10 06/17/2021 20:32:35 0.02,-104.32 0.08,-103.97 39.36 80
